Location: Elstree
(51.6403°N, 0.2969°W)
Time: 20:31:39
(UTC+00:00)

Okean 1-7 - Pass Details

Date: 03 March 2021
Orbit: 589 x 619 km, 82.5° (Epoch: 15 April)

Event Time Altitude Azimuth Distance (km) Brightness Sun altitude
Rises 19:33:19 0° 347° (NNW) 2,902 6.8 -17.5°
Reaches altitude 10° 19:35:34 10° 346° (NNW) 1,988 6.0 -17.8°
Maximum altitude 19:39:57 70° 263° (W) 654 3.3 -18.5°
Drops below altitude 10° 19:44:16 10° 180° (S) 1,955 5.5 -19.1°
Enters shadow 19:45:51 - 178° (S) 2,601 6.1 -19.4°
